sat.trackr.live / text

‹ back to catalog

STARLINK-34246

NORAD 64769 · 2025-147Q

PAYLOAD ACTIVE UNKNOWN

§ Identity

Operator
Country
US
Launch date
2025-07-08
Launch site
AFETR
Launch vehicle
Mass (kg)
RCS (m²)

Purposes: comms

External: N2YO · Heavens-Above · Gunter

§ Orbital elements

Epoch: 2026-09-20T17:30:07.949952Z

Period
93.85 min
Inclination
53.1568°
Eccentricity
0.0001248
Mean motion
15.34404300 rev/d
Perigee alt
461.8 km
Apogee alt
463.5 km
Semi-major
6,840.8 km
B*
6.2125e-4
RAAN
52.5239°
Arg perigee
91.7873°
Mean anomaly
268.3273°
Rev number
6,867

§ Raw data

STARLINK-342461 64769U 25147Q   26263.72925868  .00020674  00000+0  62125-3 0  99942 64769  53.1568  52.5239 0001248  91.7873 268.3273 15.34404300 68670

JSON: /api/v1/satellites/64769 · /tle

For live sub-satellite position, see the globe view (requires WebGL).

§ Visibility from observer

Set your observer location to see the next 7 days of passes ≥ 10°. The values pass through the URL so the page stays shareable.

No JS? Fill the form by hand. The geolocation button needs JavaScript.